Wind_Speed
30 30 30 30 31 31 32 33 33 34 35 36 36 36 37 38 40 42 44 45 45 46 47 48 49 49 50 51 51 51 51 51 51 52 51 53 56 52 47 50 52 51 52 52 53 53 52 51 49 49 49 49 50 49 48 47 47 47 46 45 44 46 46
31 31 31 31 32 32 32 33 33 34 35 36 37 37 38 38 39 41 43 44 46 47 47 48 49 50 51 52 53 53 53 53 53 53 51 51 55 55 53 54 54 53 53 52 53 56 55 54 53 51 49 49 50 50 50 49 48 48 48 46 45 46 46
32 32 32 32 33 33 34 34 34 34 35 36 37 38 39 39 40 41 42 44 46 47 48 48 49 50 51 53 54 54 54 55 55 55 54 53 54 54 53 56 59 57 54 51 51 54 57 57 55 53 52 51 49 49 50 50 49 50 50 47 46 47 47
33 34 34 34 34 34 35 35 36 36 36 37 37 38 39 40 41 41 42 44 45 47 47 48 49 50 51 53 55 55 55 57 57 56 56 55 55 54 52 54 59 60 56 52 50 51 55 57 57 56 55 54 51 50 50 48 49 50 50 49 48 47 48
35 35 36 36 37 37 37 36 37 37 38 38 38 39 40 41 42 42 43 44 45 46 47 48 49 50 51 52 54 55 56 58 58 58 57 56 56 56 53 52 56 61 58 52 50 53 55 58 60 59 57 56 54 53 52 50 49 50 50 50 49 48 49
36 37 37 38 39 39 40 39 39 39 39 39 40 40 41 42 42 43 44 45 45 46 48 48 49 50 52 52 53 54 56 58 59 59 58 58 57 57 55 53 55 60 62 56 51 52 55 60 62 60 58 57 57 56 55 54 52 50 49 49 49 48 49
37 38 39 39 40 41 42 42 42 42 41 41 41 41 42 42 43 44 44 45 46 46 47 49 50 50 51 53 53 54 55 57 59 60 60 60 59 59 58 57 56 58 62 62 56 51 51 56 61 61 59 58 59 59 58 58 55 52 51 49 48 48 47
39 40 40 41 41 42 43 44 44 45 44 43 43 42 43 43 44 45 45 46 46 47 48 48 49 50 51 52 53 54 54 56 57 59 61 61 61 61 60 60 59 58 59 61 59 53 50 52 55 59 60 59 60 62 61 60 58 55 53 51 50 48 47
40 41 42 42 43 44 44 45 45 46 46 45 45 44 44 44 45 45 46 46 47 47 48 49 49 50 51 52 53 54 54 55 56 57 59 61 62 63 63 62 62 61 60 59 57 55 53 52 51 53 58 61 61 61 63 64 61 58 55 53 52 52 50
42 42 43 43 44 44 45 45 45 45 46 46 46 46 45 45 45 46 46 47 47 48 48 49 50 51 52 53 53 53 54 55 56 56 58 60 62 63 64 64 64 63 61 60 58 57 57 56 54 51 54 60 60 59 62 65 64 61 58 56 56 55 53
43 44 45 45 45 45 45 45 45 45 45 46 46 46 46 46 46 46 46 47 47 48 48 49 49 50 52 53 54 54 54 54 55 56 57 58 60 62 63 64 65 65 63 61 60 60 60 59 57 53 53 58 60 61 62 64 66 65 63 60 59 57 55
44 45 45 46 46 46 46 45 45 44 44 45 46 46 47 47 46 46 46 47 47 48 48 49 49 50 51 52 54 54 54 55 55 56 57 57 58 60 62 63 64 65 65 64 62 62 62 60 57 53 52 54 57 61 62 63 65 67 65 65 63 59 56
45 45 45 46 46 46 46 45 45 44 44 45 46 47 47 47 47 46 46 47 47 47 48 49 49 50 50 51 52 53 54 55 55 56 56 57 57 58 60 62 63 64 65 66 65 64 62 61 59 55 52 51 53 56 58 57 56 56 57 63 64 61 59
46 46 46 46 47 46 46 45 45 45 45 45 46 47 48 48 48 47 47 47 47 47 48 48 49 50 50 50 51 51 52 53 55 56 56 57 57 57 59 61 62 62 63 65 66 66 64 62 62 59 55 53 52 52 54 54 51 47 49 55 59 62 63
45 45 46 46 47 46 46 46 45 45 45 46 46 47 48 49 49 49 48 47 47 48 48 48 49 49 50 50 50 50 51 52 53 54 55 56 56 57 58 59 61 61 62 63 64 66 66 65 64 62 59 58 57 54 53 52 50 46 44 47 52 56 61
45 45 46 46 46 47 47 47 46 46 47 46 47 47 48 49 50 50 49 49 48 48 49 49 49 49 50 50 50 50 51 51 51 52 54 55 55 56 57 58 60 61 61 62 63 64 66 67 67 65 61 60 60 58 55 54 52 48 43 43 46 49 52
45 46 46 47 47 47 48 48 48 49 48 48 48 48 49 50 50 51 51 50 50 50 49 50 50 50 50 50 51 51 51 51 52 52 52 53 54 55 56 56 58 60 61 61 62 63 65 67 68 67 65 63 61 59 58 57 57 55 51 48 47 45 46
45 45 46 47 47 48 48 49 50 50 50 50 50 50 50 51 51 52 52 52 52 51 51 51 51 51 52 52 51 52 52 52 53 52 52 53 53 54 55 56 56 57 60 61 61 62 64 66 67 67 67 67 64 62 60 59 59 60 60 57 52 48 48
44 45 45 46 47 48 49 49 50 50 51 51 51 52 52 52 53 53 54 54 53 53 53 53 53 53 53 54 53 53 53 53 53 54 53 53 53 54 55 56 56 56 58 60 61 62 63 65 65 66 67 67 67 65 63 61 61 62 63 61 56 54 54
44 44 45 46 47 47 48 48 49 50 50 51 52 52 53 53 54 54 54 54 55 55 55 55 54 55 55 55 55 55 55 55 54 54 55 55 55 55 55 56 57 56 56 58 60 61 62 64 64 64 65 66 66 65 64 63 63 62 62 60 57 58 60
44 45 45 46 46 47 47 48 48 49 50 50 51 52 53 53 54 54 54 54 55 56 56 56 56 56 55 56 56 56 56 56 56 56 56 56 56 56 56 57 57 57 56 56 58 60 62 63 63 63 64 64 63 64 64 65 65 64 63 59 57 59 62
45 45 46 46 47 48 48 48 49 49 50 50 51 52 52 52 53 54 54 54 55 55 56 56 56 56 56 56 57 57 57 57 57 57 57 57 57 57 58 58 58 58 57 56 57 59 61 63 63 62 63 63 62 62 61 62 64 65 64 60 58 60 63
45 45 46 47 47 48 49 49 49 50 50 51 51 52 52 52 52 53 53 54 55 55 56 56 56 56 57 57 58 58 59 59 58 59 59 59 59 59 59 59 59 60 59 57 57 58 60 63 63 62 61 61 61 61 60 61 62 63 63 62 62 64 64
44 45 46 47 47 48 49 49 50 50 51 51 51 52 52 52 52 53 53 54 54 55 55 55 55 56 56 57 58 59 59 60 60 60 60 60 60 60 60 61 61 61 61 59 58 57 59 61 63 62 61 60 60 59 59 61 62 59 58 60 65 67 65
44 46 46 47 48 49 49 49 49 50 50 50 51 51 52 52 52 53 54 54 54 54 55 55 55 56 56 57 58 60 60 61 61 61 61 61 61 61 61 62 62 62 62 60 59 58 58 59 62 63 61 60 60 60 59 61 61 59 56 58 64 67 65
45 46 47 48 49 49 50 50 50 50 50 50 51 51 51 52 53 53 54 55 55 55 55 55 55 56 57 58 59 60 61 61 62 62 62 63 63 62 62 63 63 63 62 61 60 59 57 58 60 62 63 62 61 61 62 62 60 58 58 59 61 64 65
45 46 47 48 48 49 50 50 50 50 50 51 51 51 52 52 52 53 54 55 55 55 56 56 57 57 57 58 59 61 62 62 63 62 62 63 63 63 63 63 63 63 62 62 60 59 58 57 58 61 63 63 62 62 62 62 62 60 58 58 59 62 65
46 47 48 48 49 49 50 50 50 50 50 51 51 51 52 52 52 53 53 54 55 55 56 57 58 58 59 59 60 62 63 63 63 63 63 62 62 63 63 63 63 63 62 62 60 58 58 57 57 59 62 63 63 63 63 62 63 63 60 57 56 59 62
48 48 48 49 49 49 49 49 49 49 50 50 50 50 51 52 52 53 53 54 54 54 55 57 58 59 59 60 61 62 63 64 65 64 63 62 61 62 62 62 62 62 62 61 59 58 57 57 58 59 61 63 64 65 64 63 63 64 63 60 57 58 60
47 48 48 49 48 48 48 47 46 47 47 48 48 49 50 51 52 53 53 54 54 55 55 56 58 59 60 61 62 63 64 65 65 64 63 61 60 61 61 61 62 62 62 60 58 57 57 57 57 58 60 62 64 66 66 65 64 64 63 62 60 60 60
45 46 46 46 45 45 44 43 43 44 45 46 47 48 50 51 51 52 53 54 55 56 56 56 58 59 60 61 62 63 64 65 65 64 63 61 59 59 60 60 61 62 61 58 57 57 56 55 56 57 59 60 63 65 66 65 64 63 62 62 62 61 60
44 44 44 42 41 40 40 41 42 44 46 47 48 49 50 51 51 52 53 53 54 54 54 54 54 55 57 59 60 61 63 64 63 62 61 60 58 58 58 59 60 61 59 57 57 56 55 54 55 56 57 58 61 64 65 64 64 64 62 61 62 63 62
43 42 40 39 38 38 40 42 44 45 46 46 47 48 48 49 50 50 50 50 51 52 52 50 50 51 52 54 55 58 61 61 60 59 59 58 56 55 57 58 58 59 58 56 56 56 54 53 54 55 56 56 59 62 64 64 65 64 63 62 63 65 65
40 39 38 37 37 39 41 43 43 43 43 43 43 44 45 46 47 46 47 49 51 52 51 49 48 47 48 49 51 54 57 58 57 56 54 53 52 53 55 56 57 58 57 55 55 55 54 53 55 55 54 53 56 60 63 65 66 65 64 64 65 66 67
37 36 36 36 38 41 42 42 40 39 40 40 41 43 44 45 45 46 47 50 50 50 49 47 45 44 45 45 46 48 51 53 53 51 50 49 50 51 53 55 56 56 56 55 55 55 54 55 56 55 53 52 54 57 61 64 67 67 66 65 65 65 67
35 34 35 37 40 41 40 39 37 37 38 40 41 42 44 45 47 47 47 45 44 42 41 40 41 42 43 43 42 43 45 48 50 49 47 47 48 50 52 54 55 55 55 54 55 55 55 56 56 54 53 52 52 53 56 61 66 68 67 66 65 64 65
33 34 36 38 40 39 37 36 36 37 38 39 41 42 44 46 46 44 39 36 34 34 33 32 34 37 39 40 40 40 41 44 46 46 47 48 48 50 51 53 54 55 54 55 56 56 56 57 56 54 53 52 50 49 51 58 64 67 67 66 65 63 63
Wind_Direction
263 263 261 260 259 257 257 258 259 260 260 260 260 257 255 252 251 251 249 248 246 245 244 243 243 243 242 240 239 237 236 236 236 236 238 237 239 244 243 241 240 241 241 241 242 243 244 244 245 246 246 245 244 244 243 243 244 246 247 248 249 250 251
266 266 266 265 265 264 262 260 259 259 259 260 260 260 259 256 253 251 251 250 248 247 246 244 243 243 243 242 241 240 239 238 238 238 239 238 241 245 245 243 242 241 243 242 241 242 244 244 244 246 248 248 248 246 245 243 243 244 245 245 247 249 250
269 269 268 267 267 267 266 265 263 261 260 259 260 260 260 259 257 254 252 251 250 249 248 247 245 243 243 244 243 242 241 240 239 240 241 240 242 244 245 243 240 241 244 245 243 241 243 246 246 246 247 248 250 250 249 247 245 245 245 245 245 247 249
273 273 273 272 271 270 269 269 268 266 264 262 261 260 260 259 259 257 255 253 252 250 249 248 248 245 243 244 244 244 243 243 242 242 242 242 243 244 244 242 239 239 243 246 247 244 244 246 246 246 246 247 248 250 251 250 248 248 247 246 245 246 249
276 277 278 278 277 276 274 273 271 270 268 266 264 262 261 260 259 258 257 255 254 253 251 249 248 248 246 244 244 244 244 244 244 244 243 244 244 244 244 243 239 238 241 246 249 248 245 246 246 245 245 246 247 247 249 249 249 249 249 249 247 247 249
278 279 280 281 281 280 279 278 275 273 271 269 267 265 263 262 260 259 257 256 255 254 253 252 249 248 248 246 244 244 244 245 245 245 244 244 245 245 245 244 241 238 239 242 248 249 247 245 244 242 244 246 247 248 248 248 248 249 250 250 250 249 249
281 281 282 282 282 281 281 280 279 277 274 272 269 267 265 263 261 260 258 257 255 254 253 253 252 250 249 248 247 245 244 244 245 246 245 244 245 246 245 245 244 242 241 242 246 248 247 244 241 241 243 245 247 248 248 248 247 249 250 251 251 251 250
282 282 283 282 282 281 280 280 279 279 277 275 272 269 267 265 262 261 259 257 256 254 253 252 252 251 250 249 248 247 245 244 244 245 246 245 245 245 245 245 245 245 246 247 247 247 246 243 240 240 241 243 246 247 247 249 247 247 249 251 252 252 251
282 282 282 281 280 280 279 278 278 278 277 276 274 271 269 267 264 262 260 258 257 255 253 251 250 250 250 249 249 248 248 246 245 244 245 246 246 245 245 245 245 245 247 249 249 247 247 244 240 239 239 240 244 246 247 249 248 247 247 249 250 251 251
281 281 280 280 279 278 277 277 276 276 275 275 274 273 271 268 266 264 262 261 259 256 254 252 250 249 249 249 249 248 247 247 246 245 244 244 245 246 246 245 245 245 246 248 248 247 248 246 242 241 239 238 240 245 247 248 249 248 247 247 248 249 250
281 280 280 279 278 277 276 276 275 274 273 273 273 272 271 269 267 265 264 262 260 259 257 254 251 249 248 248 248 248 247 246 247 246 245 243 243 245 247 246 246 246 245 246 247 247 248 248 244 240 240 239 239 242 247 250 250 249 248 247 246 247 249
281 280 280 279 278 277 276 275 274 273 272 271 271 271 270 269 268 266 264 263 261 260 259 257 254 251 249 247 247 247 248 247 246 246 246 245 243 243 245 247 246 246 246 245 246 246 247 249 246 239 236 239 241 241 244 247 249 250 249 248 246 246 248
281 280 279 278 277 276 275 274 273 271 271 270 270 270 270 269 268 267 265 263 262 260 259 258 256 254 251 249 247 246 247 248 247 246 246 246 244 242 242 245 246 246 246 245 245 245 245 248 249 244 238 240 241 240 238 239 243 246 247 247 246 245 245
279 278 277 276 275 275 274 273 272 271 270 270 269 270 270 270 269 267 266 264 263 261 259 258 257 255 253 251 249 247 246 247 248 248 247 246 246 244 242 242 244 245 246 245 245 245 244 245 248 248 247 246 243 239 238 238 241 245 246 249 247 244 243
277 276 275 274 274 273 273 272 272 271 270 269 268 268 269 269 269 268 267 265 264 262 260 258 257 256 254 252 251 249 247 247 247 248 248 247 247 246 244 242 242 243 244 244 244 245 244 243 244 246 248 249 248 245 240 238 242 246 246 250 250 247 244
274 274 274 273 273 273 272 272 272 271 270 269 268 268 268 268 268 268 267 266 264 263 262 260 258 256 255 253 252 251 250 248 247 246 247 247 247 247 246 244 242 242 243 242 242 243 243 243 242 242 243 247 249 249 245 239 239 240 241 246 251 252 250
274 274 274 273 273 273 273 273 272 272 271 270 269 268 268 268 268 268 267 266 264 263 262 261 260 258 256 255 253 252 251 250 249 247 246 246 246 246 246 246 244 243 242 242 241 241 242 243 242 242 241 243 245 248 249 245 241 240 240 245 251 256 255
274 274 274 274 274 274 274 273 273 273 272 272 271 269 268 267 267 267 267 266 264 263 262 261 260 260 259 257 255 253 252 251 250 249 247 246 245 245 245 245 245 244 243 242 241 240 241 241 242 242 241 241 242 244 246 247 246 246 246 247 253 257 256
275 274 274 274 274 274 274 273 273 273 273 272 271 270 269 268 267 266 266 266 265 263 262 261 260 259 259 258 257 255 254 252 251 250 249 247 246 245 245 245 244 244 244 243 242 240 240 240 241 242 242 242 241 242 244 246 247 249 250 250 252 254 254
276 275 275 274 274 274 274 273 273 273 272 272 271 270 269 268 267 266 265 265 265 264 262 261 260 259 259 258 258 257 255 254 252 251 250 249 247 246 246 246 245 244 243 243 243 242 241 240 240 241 242 242 242 242 243 245 246 247 249 252 251 251 252
277 277 277 276 276 275 274 274 273 273 272 271 271 270 269 268 268 267 266 265 264 264 263 262 260 259 259 258 258 257 256 255 254 252 251 250 248 246 245 246 246 245 242 241 242 243 242 241 239 239 240 241 242 241 241 243 245 245 246 250 251 250 251
279 279 279 278 278 277 276 275 275 274 273 272 271 271 270 269 268 267 267 266 265 264 263 262 262 260 259 258 257 257 256 256 254 253 252 251 250 248 246 246 246 246 244 242 241 242 242 242 240 239 239 240 241 241 240 241 244 244 244 245 247 249 249
281 281 280 280 279 279 278 277 277 276 275 274 273 272 271 270 270 269 268 267 266 265 264 263 263 262 261 259 258 257 256 255 255 254 253 251 250 249 247 246 245 246 246 243 241 240 241 241 240 239 238 239 240 240 239 240 242 243 242 241 243 245 247
283 282 282 281 281 280 279 279 278 277 276 275 274 273 272 272 271 270 269 268 267 266 265 264 263 263 262 260 259 258 256 255 254 254 253 252 250 249 247 246 245 245 245 244 243 241 240 240 240 239 238 237 239 239 238 239 242 242 240 238 240 243 245
284 283 283 283 283 282 282 281 280 279 278 276 275 274 273 273 272 271 269 268 267 266 265 265 264 263 262 261 261 259 258 256 254 253 253 252 250 248 246 245 244 244 245 244 244 243 241 240 239 238 237 236 236 237 236 237 240 241 239 238 239 241 243
285 285 285 285 285 284 284 283 282 280 279 277 276 275 274 273 272 271 270 269 268 267 266 265 264 264 263 262 261 260 259 257 255 253 252 251 251 248 245 244 243 242 244 244 244 244 243 241 239 237 236 235 234 234 234 234 237 239 239 239 239 240 242
286 286 287 287 287 286 284 283 282 281 279 278 276 275 274 273 273 272 271 270 268 267 266 265 264 263 262 262 261 260 259 258 256 255 252 250 250 248 245 243 241 241 242 243 243 244 244 242 239 236 235 234 233 233 233 232 233 235 236 236 237 239 241
287 288 288 288 287 286 285 283 282 280 279 278 276 275 274 273 273 272 271 270 269 268 267 266 264 263 262 261 260 259 258 258 257 255 253 250 249 248 245 242 240 239 240 242 242 243 244 243 241 237 234 232 232 233 232 232 232 233 232 232 234 238 240
288 288 288 288 287 287 286 285 283 281 280 279 278 276 275 274 273 272 271 271 270 269 268 266 264 263 261 260 259 258 257 257 256 255 253 250 247 246 244 241 239 238 238 240 241 242 244 244 242 238 233 231 231 232 231 230 232 232 231 230 232 236 238
289 289 289 288 288 287 286 285 284 282 281 281 279 278 277 275 274 273 273 273 272 270 268 266 264 263 261 259 258 256 255 254 254 253 252 249 247 245 242 239 238 237 236 237 239 240 243 244 243 240 234 230 229 230 230 229 230 231 231 229 229 232 235
290 290 290 289 288 287 287 286 285 284 283 282 281 280 278 277 276 275 274 273 272 271 269 267 265 263 260 258 256 255 254 252 251 251 250 248 246 243 240 237 236 236 235 235 236 239 241 244 244 241 235 231 228 229 229 229 229 230 231 230 229 229 232
291 291 291 290 289 288 287 287 286 286 285 283 282 280 279 278 276 276 275 274 273 272 270 268 266 263 261 258 256 253 252 251 250 248 248 247 246 242 237 235 234 234 233 232 234 238 240 243 244 242 237 233 229 227 227 228 229 229 230 230 229 228 230
292 292 291 290 289 289 289 289 288 287 286 284 283 282 280 279 278 277 276 275 274 273 271 269 266 264 261 258 255 252 250 249 248 247 246 246 243 239 235 233 232 232 231 231 233 236 239 242 242 241 239 235 231 227 225 226 228 228 228 229 228 227 228
291 291 290 289 290 291 291 291 290 289 288 286 285 285 284 282 281 279 278 276 275 274 272 270 267 265 261 258 256 253 250 248 247 246 244 242 239 235 233 232 231 230 229 229 231 235 238 240 240 240 239 237 233 227 223 224 226 226 226 227 227 227 227
290 289 289 290 292 294 294 294 293 292 291 289 288 287 286 284 283 281 280 279 277 275 274 272 270 267 263 259 256 254 251 248 245 242 239 237 234 232 230 230 229 229 228 228 230 233 236 237 237 236 236 236 233 227 223 223 225 225 224 225 227 227 228
288 288 289 293 295 297 297 296 295 295 294 293 292 290 289 288 287 286 284 281 278 276 274 273 270 267 263 259 255 252 249 246 243 239 234 232 230 229 228 228 228 228 228 228 230 232 234 234 232 231 232 234 233 228 225 224 224 224 224 224 225 227 228
288 289 293 296 298 298 298 297 297 298 299 298 296 294 293 292 291 289 285 280 277 275 274 271 268 265 262 258 253 249 246 244 243 238 233 229 227 226 226 226 227 227 227 227 229 230 230 230 228 227 229 232 232 229 227 225 223 224 224 224 225 226 227
Height
5755 5757 5758 5759 5760 5761 5761 5762 5762 5763 5763 5763 5764 5765 5766 5768 5769 5769 5770 5771 5772 5774 5775 5777 5778 5780 5782 5783 5784 5786 5787 5788 5790 5791 5794 5796 5794 5794 5798 5800 5802 5805 5806 5808 5810 5811 5811 5814 5815 5817 5819 5821 5823 5824 5826 5828 5829 5830 5831 5833 5835 5834 5835
5751 5752 5753 5754 5755 5756 5757 5758 5758 5759 5759 5759 5760 5760 5761 5762 5764 5764 5765 5766 5767 5768 5770 5772 5773 5774 5776 5777 5779 5781 5783 5784 5785 5786 5789 5790 5789 5790 5792 5794 5797 5799 5801 5803 5804 5805 5806 5808 5810 5813 5816 5817 5818 5820 5821 5823 5825 5825 5826 5829 5830 5830 5830
5746 5747 5748 5749 5750 5751 5751 5752 5753 5754 5755 5755 5756 5756 5756 5757 5758 5759 5760 5761 5762 5763 5764 5766 5768 5769 5770 5771 5773 5775 5777 5778 5780 5781 5783 5785 5785 5785 5787 5788 5790 5793 5796 5798 5800 5800 5802 5803 5806 5809 5811 5812 5814 5816 5817 5819 5820 5820 5822 5825 5826 5826 5826
5741 5742 5743 5744 5745 5746 5746 5747 5748 5749 5750 5750 5751 5751 5752 5752 5753 5753 5754 5755 5756 5757 5758 5760 5761 5763 5765 5765 5766 5769 5771 5772 5773 5776 5777 5779 5780 5780 5782 5783 5785 5788 5791 5794 5795 5796 5797 5799 5801 5803 5805 5807 5810 5812 5812 5815 5816 5816 5818 5820 5822 5822 5822
5736 5736 5737 5738 5739 5740 5741 5742 5742 5743 5744 5744 5745 5746 5746 5747 5747 5748 5749 5749 5750 5751 5752 5754 5755 5756 5758 5760 5761 5763 5765 5766 5767 5769 5771 5774 5775 5775 5777 5779 5780 5783 5785 5788 5790 5790 5793 5794 5795 5798 5799 5801 5804 5806 5808 5810 5811 5812 5814 5815 5817 5818 5818
5731 5731 5732 5732 5733 5733 5734 5735 5736 5737 5738 5738 5739 5740 5740 5741 5742 5742 5743 5743 5744 5745 5746 5747 5748 5750 5751 5753 5755 5757 5758 5759 5760 5763 5766 5768 5769 5769 5772 5773 5775 5777 5780 5783 5784 5785 5787 5788 5789 5792 5794 5795 5798 5800 5802 5804 5806 5808 5809 5810 5812 5813 5814
5726 5726 5727 5727 5727 5727 5728 5728 5729 5730 5731 5732 5733 5734 5734 5735 5736 5736 5737 5738 5739 5739 5740 5741 5742 5743 5745 5746 5748 5750 5752 5753 5754 5756 5759 5761 5763 5764 5766 5768 5769 5772 5774 5775 5777 5780 5782 5782 5783 5786 5789 5791 5791 5793 5795 5797 5801 5804 5804 5806 5808 5809 5810
5721 5721 5721 5721 5722 5722 5722 5722 5722 5723 5724 5725 5726 5727 5728 5729 5729 5730 5731 5732 5733 5733 5734 5735 5736 5737 5738 5739 5741 5743 5745 5747 5748 5750 5752 5754 5757 5758 5760 5762 5764 5766 5768 5770 5772 5775 5776 5777 5779 5781 5784 5785 5785 5786 5789 5790 5794 5799 5800 5802 5803 5804 5805
5716 5716 5716 5716 5716 5716 5716 5716 5716 5717 5717 5718 5719 5720 5721 5722 5723 5723 5724 5725 5726 5727 5728 5729 5730 5731 5731 5732 5734 5736 5738 5740 5742 5744 5745 5747 5749 5751 5753 5756 5757 5760 5763 5764 5766 5769 5770 5772 5774 5775 5777 5779 5779 5781 5782 5783 5787 5792 5795 5797 5798 5799 5800
5711 5711 5710 5710 5710 5710 5710 5710 5711 5711 5711 5712 5712 5713 5714 5715 5716 5716 5717 5718 5719 5720 5721 5722 5723 5724 5725 5725 5727 5729 5731 5732 5734 5736 5738 5740 5742 5744 5746 5749 5751 5754 5757 5759 5761 5763 5764 5766 5768 5770 5771 5773 5774 5775 5776 5777 5780 5785 5789 5791 5792 5793 5794
5706 5705 5705 5705 5704 5704 5704 5705 5705 5706 5706 5706 5706 5706 5707 5708 5709 5710 5710 5711 5712 5713 5714 5715 5716 5718 5718 5719 5720 5722 5724 5725 5727 5729 5731 5733 5735 5737 5739 5742 5744 5746 5750 5752 5754 5756 5757 5759 5762 5764 5766 5767 5769 5770 5771 5773 5774 5777 5782 5784 5785 5787 5789
5700 5700 5699 5699 5699 5698 5699 5699 5699 5700 5700 5700 5700 5700 5700 5701 5702 5703 5703 5704 5705 5705 5706 5707 5709 5710 5711 5713 5714 5715 5716 5718 5720 5722 5723 5725 5728 5730 5732 5734 5736 5739 5742 5745 5748 5750 5751 5753 5755 5758 5760 5761 5763 5765 5767 5767 5767 5771 5775 5776 5778 5783 5785
5694 5694 5694 5693 5693 5693 5693 5693 5693 5694 5694 5695 5694 5694 5694 5694 5695 5696 5697 5697 5698 5699 5699 5700 5701 5702 5704 5705 5707 5708 5709 5710 5712 5714 5716 5718 5720 5723 5725 5727 5729 5732 5735 5737 5740 5743 5746 5747 5748 5751 5753 5755 5757 5759 5761 5761 5762 5766 5769 5768 5771 5777 5779
5688 5688 5688 5687 5687 5687 5687 5687 5687 5688 5688 5688 5688 5688 5688 5688 5688 5689 5690 5691 5691 5692 5692 5693 5693 5694 5696 5697 5699 5701 5702 5704 5705 5707 5708 5710 5712 5715 5718 5720 5722 5725 5727 5730 5733 5736 5739 5742 5743 5744 5747 5748 5751 5754 5756 5756 5758 5761 5763 5762 5765 5770 5771
5682 5682 5681 5681 5681 5681 5681 5681 5681 5681 5682 5682 5682 5682 5682 5682 5682 5682 5683 5684 5684 5685 5686 5686 5687 5687 5688 5690 5691 5693 5695 5696 5698 5699 5701 5703 5705 5707 5710 5712 5715 5717 5720 5722 5725 5728 5732 5735 5737 5739 5742 5743 5745 5748 5751 5753 5754 5757 5759 5758 5759 5761 5764
5676 5676 5675 5675 5675 5675 5675 5675 5675 5675 5675 5675 5676 5676 5676 5676 5675 5676 5677 5677 5678 5678 5679 5680 5680 5681 5681 5682 5684 5685 5687 5688 5690 5692 5694 5696 5698 5699 5702 5705 5707 5709 5712 5715 5718 5721 5724 5727 5730 5734 5737 5738 5739 5742 5744 5747 5749 5752 5754 5754 5754 5755 5759
5670 5670 5669 5669 5669 5669 5669 5668 5668 5668 5668 5668 5669 5669 5669 5669 5669 5669 5670 5670 5671 5671 5672 5673 5673 5674 5675 5675 5677 5678 5679 5681 5682 5684 5686 5688 5691 5692 5694 5697 5699 5702 5704 5707 5711 5714 5716 5719 5722 5726 5730 5733 5735 5736 5738 5741 5743 5745 5747 5748 5748 5751 5755
5664 5663 5663 5662 5662 5662 5662 5661 5661 5661 5661 5661 5661 5662 5662 5662 5662 5662 5663 5663 5664 5664 5665 5665 5666 5667 5667 5668 5669 5671 5672 5673 5675 5676 5679 5681 5683 5685 5687 5689 5692 5694 5696 5700 5703 5706 5709 5711 5714 5718 5722 5725 5729 5731 5733 5735 5738 5739 5741 5742 5744 5746 5748
5657 5657 5656 5656 5656 5655 5655 5655 5654 5654 5653 5654 5653 5653 5654 5654 5654 5655 5655 5656 5656 5657 5658 5658 5659 5659 5660 5660 5662 5663 5664 5666 5667 5669 5671 5673 5675 5678 5679 5681 5684 5686 5689 5692 5695 5698 5701 5703 5706 5710 5713 5717 5721 5724 5727 5730 5732 5733 5735 5738 5741 5741 5741
5651 5650 5650 5649 5649 5649 5648 5648 5647 5647 5646 5646 5645 5645 5645 5646 5646 5647 5648 5648 5648 5649 5650 5651 5651 5652 5652 5653 5654 5655 5656 5658 5660 5661 5663 5665 5667 5669 5671 5673 5675 5678 5682 5685 5687 5690 5693 5695 5699 5702 5705 5709 5713 5717 5721 5724 5725 5728 5730 5733 5735 5736 5736
5644 5644 5643 5643 5642 5642 5641 5641 5640 5640 5639 5638 5638 5637 5637 5637 5638 5638 5639 5640 5640 5641 5641 5642 5643 5644 5645 5645 5645 5646 5648 5649 5651 5653 5655 5656 5658 5661 5663 5664 5667 5670 5674 5678 5680 5682 5684 5687 5691 5695 5698 5702 5705 5709 5714 5717 5718 5721 5725 5728 5729 5730 5731
5638 5637 5636 5636 5635 5634 5634 5633 5633 5632 5631 5631 5630 5630 5629 5629 5629 5630 5630 5631 5632 5632 5633 5634 5635 5636 5636 5637 5637 5638 5639 5641 5643 5644 5647 5648 5650 5653 5655 5657 5659 5662 5666 5670 5673 5675 5677 5679 5683 5687 5691 5694 5697 5701 5706 5710 5711 5713 5719 5723 5724 5723 5724
5632 5631 5630 5629 5628 5627 5627 5626 5625 5625 5624 5623 5623 5622 5621 5621 5621 5621 5622 5622 5623 5624 5624 5626 5627 5627 5627 5627 5628 5629 5630 5632 5634 5635 5638 5640 5642 5644 5647 5649 5651 5654 5657 5661 5664 5667 5669 5672 5675 5679 5684 5687 5690 5694 5699 5702 5704 5706 5712 5717 5717 5716 5718
5625 5624 5623 5622 5621 5620 5619 5619 5618 5617 5616 5616 5615 5614 5614 5613 5613 5613 5613 5614 5614 5615 5616 5617 5618 5618 5618 5618 5618 5619 5620 5622 5624 5626 5629 5631 5634 5636 5638 5641 5643 5645 5648 5652 5656 5659 5662 5664 5668 5672 5676 5680 5683 5687 5692 5695 5697 5700 5705 5709 5710 5710 5713
5619 5617 5616 5615 5614 5613 5612 5611 5610 5610 5609 5608 5607 5606 5606 5605 5605 5605 5605 5605 5606 5606 5607 5608 5608 5609 5609 5609 5609 5609 5610 5612 5615 5617 5619 5621 5624 5627 5630 5632 5635 5637 5640 5644 5648 5650 5654 5657 5660 5664 5668 5672 5676 5680 5684 5687 5690 5694 5698 5701 5703 5705 5708
5612 5611 5610 5609 5607 5606 5605 5604 5603 5602 5601 5600 5599 5599 5598 5597 5597 5596 5596 5597 5597 5597 5598 5599 5599 5599 5599 5599 5599 5599 5600 5602 5604 5607 5610 5612 5614 5618 5621 5623 5626 5629 5633 5636 5639 5642 5646 5649 5653 5656 5660 5664 5668 5672 5676 5680 5684 5688 5692 5694 5697 5699 5702
5606 5605 5604 5602 5601 5599 5598 5596 5595 5594 5593 5592 5591 5591 5590 5589 5589 5588 5587 5588 5588 5589 5589 5589 5590 5590 5590 5590 5589 5589 5590 5591 5593 5596 5600 5602 5605 5608 5612 5615 5618 5622 5625 5627 5631 5634 5637 5641 5645 5648 5652 5656 5660 5664 5668 5673 5677 5681 5685 5688 5691 5693 5696
5601 5599 5598 5596 5594 5592 5590 5589 5588 5586 5585 5584 5583 5583 5582 5581 5580 5580 5579 5578 5579 5580 5580 5579 5579 5580 5580 5580 5579 5579 5580 5581 5583 5586 5589 5592 5595 5598 5602 5606 5609 5613 5616 5619 5623 5627 5629 5632 5636 5640 5644 5648 5653 5656 5661 5666 5670 5673 5677 5681 5685 5688 5691
5595 5593 5591 5589 5587 5586 5583 5582 5580 5579 5578 5577 5575 5575 5574 5573 5572 5571 5571 5570 5569 5570 5570 5569 5569 5569 5569 5569 5568 5569 5570 5571 5572 5575 5578 5582 5585 5588 5592 5596 5600 5605 5608 5611 5616 5619 5621 5624 5627 5631 5635 5640 5644 5648 5653 5658 5662 5665 5669 5674 5678 5681 5685
5588 5586 5584 5582 5580 5578 5576 5575 5573 5571 5570 5569 5568 5567 5565 5564 5563 5562 5562 5561 5560 5560 5560 5560 5559 5558 5558 5558 5558 5558 5560 5560 5562 5565 5568 5572 5575 5579 5583 5587 5591 5595 5599 5604 5608 5611 5614 5616 5618 5621 5626 5631 5636 5640 5644 5650 5654 5658 5662 5668 5671 5675 5679
5582 5580 5578 5575 5573 5572 5570 5568 5566 5565 5563 5562 5560 5559 5557 5556 5555 5554 5553 5552 5550 5549 5550 5549 5548 5547 5547 5546 5546 5548 5548 5549 5552 5555 5558 5561 5565 5569 5573 5578 5582 5586 5591 5597 5600 5603 5606 5608 5610 5613 5618 5623 5628 5632 5637 5643 5648 5652 5657 5661 5665 5670 5674
5576 5574 5571 5569 5567 5566 5564 5562 5560 5558 5556 5555 5553 5551 5549 5547 5546 5545 5543 5542 5540 5539 5539 5539 5538 5537 5536 5535 5536 5537 5537 5538 5542 5545 5548 5551 5556 5560 5564 5569 5574 5578 5584 5589 5592 5595 5598 5601 5603 5606 5609 5614 5619 5625 5631 5638 5642 5646 5651 5655 5659 5664 5668
5570 5568 5566 5563 5562 5560 5558 5556 5554 5552 5549 5547 5545 5543 5541 5539 5537 5536 5535 5533 5532 5530 5529 5529 5528 5527 5526 5526 5526 5526 5526 5529 5532 5536 5539 5542 5547 5552 5556 5561 5566 5571 5576 5581 5585 5588 5591 5594 5596 5599 5602 5606 5612 5617 5624 5631 5635 5639 5644 5648 5652 5657 5662
5565 5563 5560 5558 5557 5554 5552 5550 5547 5545 5542 5540 5538 5535 5533 5531 5529 5528 5527 5524 5522 5521 5519 5519 5518 5518 5517 5517 5516 5516 5517 5520 5523 5526 5530 5534 5539 5544 5548 5553 5558 5563 5568 5573 5577 5580 5584 5587 5589 5592 5595 5600 5604 5609 5617 5623 5626 5631 5636 5640 5644 5650 5655
5560 5558 5555 5553 5551 5549 5546 5543 5541 5539 5536 5534 5531 5528 5525 5523 5521 5520 5518 5515 5513 5511 5510 5509 5509 5509 5508 5508 5508 5508 5509 5512 5514 5518 5522 5526 5531 5536 5541 5545 5550 5555 5560 5565 5569 5573 5576 5579 5582 5586 5589 5592 5596 5602 5610 5614 5617 5622 5627 5632 5637 5642 5647
5555 5553 5551 5548 5546 5543 5540 5538 5535 5533 5530 5527 5524 5521 5518 5515 5513 5511 5509 5506 5504 5502 5502 5501 5500 5500 5499 5500 5500 5501 5502 5504 5507 5510 5514 5519 5524 5528 5533 5537 5543 5548 5553 5558 5562 5566 5569 5572 5576 5580 5583 5586 5590 5596 5602 5606 5609 5615 5620 5625 5630 5636 5641
5550 5548 5546 5543 5540 5538 5535 5533 5530 5527 5524 5520 5517 5514 5511 5508 5505 5502 5500 5498 5497 5495 5495 5494 5493 5492 5492 5493 5493 5495 5496 5498 5500 5503 5507 5512 5516 5521 5526 5530 5535 5540 5545 5550 5554 5558 5562 5565 5570 5574 5578 5581 5585 5590 5594 5598 5603 5608 5614 5619 5625 5630 5634